loading
DOY 172 | 2024-06-20T00:24:47Z
Showing default

TRANSIT 5E 3, 705

Orbit data source: Space-Track

TRANSIT 5E 3, 705 is a payload satellite owned by USN BuWeps (US) in LEO that was launched on Thu, 05 Dec 1963 UTC via a Thor Ablestar launch vehicle from the Air Force Western Test Range (AFWTR). Payloads include a variety of satellites, spacecraft, and rockets equipped with specific instruments for various scientific and technological missions. These include communications satellites like Starlink; space stations such as the ISS; scientific satellites like the Hubble; Earth observation satellites from companies like Planet Labs, Umbra, and HawkEye 360; GPS; miniature CubeSats for education and research; and military/defense satellites.

Loading next visibility...
Loading greatness...
TRANSIT 5E 3 details
NORAD ID705
COSPAR ID
1963-049C
Orbit
LEO
Last TLE update10 hours ago
Origin
Flag of USUSN BuWeps (US)
ManufacturerAPL
BusTransit 5
MotorUnknown
Mass52 kg wet, 52 kg dry
Launch date (UTC)
1963-12-05 (61 years ago)
Launch vehicle
Thor Ablestar
Launch site
Air Force Western Test Range (AFWTR)
Object type
Payload
Rocket body
Debris
Radar Cross Section1.3 m², Large (>1 m²)
Predictive object data (real-time)
Latitude-24.80344°
Longitude-43.10852°
Altitude1,112.495 km
Speed7.285 km/s
Apparent Right ascension02h 47m 28s
Apparent Declination-39° 53' 25"
Sunlit
Object is in daylight
Predictive observer data (real-time)
Local Sidereal Time11:19:10
Azimuth252.635° W
Elevation-50.646°
Doppler factor1
Orbital elements
Apogee1,103.288 km
Perigee1,053.619 km
Semi-major axis7,456.59 km
Eccentricity0.0033306
Inclination89.9157°
RAAN76.5188°
Arg. of periapsis185.2871°
True anomaly223.56927°
Mean anomaly223.8328°
Mean motion3.3708 °/min
BSTAR0.00013253
Period106.8 mins
Definitive object data (Epoch: 2024-06-19T14:05:10.497Z)
Latitude48.94876°
Longitude-42.96982°
Altitude1,107.143 km
Speed7.295 km/s
True Right ascension05h 06m 27s
True Declination48° 47' 11"
Sunlit
Object was in daylight at TLE epoch
TLE from 10 hours ago
0 TRANSIT 5E 3
1 00705U 63049C   24171.58692705  .00000091  00000-0  13253-3 0  9998
2 00705  89.9157  76.5188 0033306 185.2871 223.8328 13.47519154974126
Epoch: 2024-06-19T14:05Z
No data available

TRANSIT 5E 3 Visibility forecast

Observer location: 39.9160978°, -105.1181434, 0m alt.

TRANSIT 5E 3 is not visible in the next 10 days
Span
Click to sort rows by Start time (UTC) header in descending order
Start Az.
Max El. time (UTC)
Max El. Az.
Max El.
End time (UTC)
End Az.